Location: Yellowknife
(62.4500°N, 114.3500°W)
Time: 22:46:56
(UTC-06:00)

ISS - Visible Passes

Search period start: 19 March 2019 00:00
Search period end: 29 March 2019 00:00
Orbit: 406 x 411 km, 51.6° (Epoch: 20 March)

Date Brightness Start Highest point End Pass type
(mag) Time Alt. Az. Time Alt. Az. Time Alt. Az.
25 Mar -1.2 22:37:12 10° SSW 22:37:16 10° SSW 22:37:16 10° SSW visible
26 Mar -1.6 21:46:37 10° SSW 21:48:02 12° S 21:48:25 12° SSE visible
27 Mar -1.4 20:56:17 10° S 20:57:15 11° SSE 20:58:12 10° SSE visible
27 Mar -1.5 22:31:11 10° SW 22:32:13 13° SSW 22:32:13 13° SSW visible
28 Mar -1.6 21:40:19 10° SSW 21:41:59 13° S 21:43:12 11° SSE visible
